User: anonymous   Login
Location: Nantong Television Tower
(32.0188°N, 120.8512°E)
Time: 02:45:15
(UTC+08:00)
Language:

ATLAS 3B CENTAUR R/B - Orbit

View from above orbital plane
View from above orbital plane
View from above satellite
View from above satellite

Ground track
Ground track

The orbit data is extracted from the following two-line orbital elements,

1 28118U 03057B   16127.19037818  .00080713  00000-0  14088-2 0  9991
2 28118  28.1269  79.7129 3318904  14.9539 352.9058  8.83287497252551
Epoch (UTC): 06 May 2016 04:34:08
Eccentricity: 0.3318904
inclination: 28.1269°
perigee height: 226 km
apogee height: 6788 km
right ascension of ascending node: 79.7129°
argument of perigee: 14.9539°
revolutions per day: 8.83287497
mean anomaly at epoch: 352.9058°
orbit number at epoch: 25255

The dashed part of the orbit path shows where the satellite is in the earth's shadow,  

DLR